Flag for Germany Weather past 2 weeks in Seevetal, Lower Saxony, Germany

Now
79 °F

Passing clouds.


Feels Like: 79 °F
Forecast: 60 / 82 °F
Wind: 7 mph from South

Location: Hamburg-Finkenwerder

Current Time: Aug 1, 2014 at 2:44:36 PM

Latest Report: Aug 1, 2014 at 1:50 PM


Visibility: N/A

Pressure: 29.86 "Hg

Humidity: 42%

Dew point: 54 °F

Location of SeevetalLocation

Historic Weather in Seevetal — Graph

°F

Seevetal temperature yesterday

Maximum temperature yesterday: 73 °F (at 1:20 PM)
Minimum temperature yesterday: 55 °F (at 5:50 AM)
Average temperature yesterday: 69 °F

Past Weeks' High & Low Weather Summary

 TemperatureHumidityPressure
High86 °F (Jul 18, 3:20 PM)100% (Jul 28, 5:50 AM)30.18 "Hg (Jul 28, 5:50 AM)
Low55 °F (Jul 31, 5:50 AM)37% (Jul 23, 3:50 PM)29.77 "Hg (Jul 29, 3:50 PM)
Average74 °F64%29.97 "Hg
* Reported Jul 17 1:20 PM — Aug 1 1:50 PM, Seevetal, Weather by CustomWeather, © 2014

Note: Actual official high and low records may vary slightly from our data, if they occured in-between our weather recording intervals... More about our weather records

Advertising

Seevetal weather history for previous 24 hours

 ConditionsComfort  
Time TempWeatherWind HumidityBarometerVisibility
1:50 PM
Aug 1
79 °FPassing clouds.7 mph42%29.86 "HgN/A
1:20 PM79 °FPassing clouds.8 mph45%29.89 "HgN/A
12:50 PM81 °FPassing clouds.8 mph39%29.89 "HgN/A
12:20 PM79 °FPassing clouds.9 mph42%29.89 "HgN/A
11:50 AM79 °FPassing clouds.8 mph48%29.89 "HgN/A
11:20 AM77 °FPassing clouds.8 mph47%29.89 "HgN/A
10:50 AM77 °FPassing clouds.8 mph47%29.89 "HgN/A
10:20 AM75 °FPassing clouds.7 mph54%29.89 "HgN/A
9:50 AM73 °FPassing clouds.5 mph53%29.92 "HgN/A
9:20 AM72 °FPassing clouds.6 mph57%29.92 "HgN/A
8:50 AM81 °FPassing clouds.6 mph58%29.92 "HgN/A
8:20 AM70 °FSunny.3 mph60%29.92 "Hg10 mi
7:50 AM66 °FPassing clouds.5 mph68%29.92 "HgN/A
7:20 AM64 °FSunny.2 mph73%29.92 "Hg10 mi
6:50 AM63 °FSunny.3 mph77%29.92 "Hg10 mi
6:20 AM61 °FClear.3 mph77%29.92 "Hg10 mi
5:50 AM63 °FClear.3 mph73%29.92 "Hg10 mi
8:20 PM
Jul 31
72 °FSunny.3 mph65%29.92 "Hg10 mi
7:50 PM72 °FPassing clouds.5 mph61%29.92 "HgN/A
7:20 PM72 °FPassing clouds.5 mph61%29.92 "HgN/A
6:50 PM73 °FPassing clouds.5 mph57%29.92 "HgN/A
6:20 PM73 °FPassing clouds.5 mph53%29.92 "HgN/A
5:50 PM73 °FPassing clouds.7 mph57%29.92 "HgN/A
5:20 PM73 °FPassing clouds.7 mph57%29.95 "HgN/A
4:50 PM73 °FSunny.8 mph61%29.95 "Hg10 mi
4:20 PM73 °FPassing clouds.8 mph57%29.95 "HgN/A
3:50 PM72 °FScattered clouds.8 mph61%29.95 "HgN/A
3:20 PM73 °FScattered clouds.10 mph57%29.95 "HgN/A
2:50 PM73 °FScattered clouds.13 mph57%29.95 "HgN/A
2:20 PM73 °FScattered clouds.14 mph57%29.95 "HgN/A
Weather by CustomWeather, © 2014

See weather overviewHow to use our weather pages